Location: Jewell
(31.5029°N, 97.1961°W)
Time: 05:46:21
(UTC+00:00)

Tiangong - Visible Passes

Search period start: 09 December 2025 00:00
Search period end: 19 December 2025 00:00
Orbit: 384 x 397 km, 41.5° (Epoch: 08 December)

Date Brightness Start Highest point End Pass type
(mag) Time Alt. Az. Time Alt. Az. Time Alt. Az.
09 Dec 0.6 11:14:12 16° NE 11:14:12 16° NE 11:15:19 10° ENE visible
09 Dec -2.1 12:46:48 10° WNW 12:50:01 81° SSW 12:53:15 10° SE visible
10 Dec -1.7 11:51:41 45° NNW 11:52:16 53° NNE 11:55:25 10° ESE visible
11 Dec 1.2 10:56:48 13° E 10:56:48 13° E 10:57:18 10° E visible
11 Dec -1.1 12:29:08 15° W 12:31:20 34° SW 12:34:17 10° SSE visible
12 Dec -1.3 11:34:16 48° SSE 11:34:16 48° SSE 11:36:45 10° SE visible
13 Dec 0.0 12:11:45 15° SW 12:12:21 15° SW 12:14:20 10° S visible
14 Dec 0.8 11:16:52 13° SSE 11:16:52 13° SSE 11:17:23 10° SSE visible
